CW6293 Weather Reports


time (UTC)temp
C
wind
direction
speed
KPH
gust
KPH
rain 1hr
cm
rain 24hr
cm
rain mn
cm
humidity
%
barometer
mb
20260504183324 15 252 16.1 0.0 0.00 0.00 0.00 29 1010.6
20260504180319 15 286 12.9 0.0 0.00 0.00 0.00 30 1011.3
20260504173333 13 275 14.5 0.0 0.00 0.00 0.00 31 1011.3
20260504170328 15 247 11.3 0.0 0.00 0.00 0.00 32 1011.2
20260504160335 12 250 3.2 0.0 0.00 0.00 0.00 36 1012.2
20260504150335 9 19 1.6 0.0 0.00 0.00 0.00 47 1012.7
20260504140322 5 355 6.4 0.0 0.00 0.00 0.00 59 1012.8
20260504130326 0 355 3.2 0.0 0.00 0.00 0.00 73 1012.3
20260504110321 -2 355 6.4 0.0 0.00 0.00 0.00 76 1012.2
20260504100329 -1 13 8.0 0.0 0.00 0.00 0.00 74 1012.5
20260504080320 0 344 8.0 0.0 0.00 0.00 0.00 71 1013.0
20260504070348 0 17 9.7 0.0 0.00 0.00 0.00 73 1013.4
20260504050337 1 32 0.0 0.0 0.00 0.00 0.00 60 1014.6
20260504043352 2 31 0.0 0.0 0.00 0.00 0.00 59 1014.2
20260504040324 2 28 0.0 0.0 0.00 0.00 0.00 55 1014.5
20260504033338 3 27 0.0 0.0 0.00 0.00 0.00 54 1013.8
20260504030331 5 13 0.0 0.0 0.00 0.00 0.00 46 1014.1
20260504023325 8 329 0.0 0.0 0.00 0.00 0.00 39 1013.6
20260504020359 12 307 3.2 0.0 0.00 0.00 0.00 33 1013.6
20260504013332 14 292 11.3 0.0 0.00 0.00 0.00 28 1013.3
20260504010326 14 283 8.0 0.0 0.00 0.00 0.00 29 1013.9
20260504003320 14 309 8.0 0.0 0.00 0.00 0.00 27 1014.1
20260504000334 16 281 9.7 0.0 0.00 0.00 0.00 22 1014.1
20260503233327 15 264 9.7 0.0 0.00 0.00 0.00 25 1014.1
20260503230322 16 294 11.3 0.0 0.00 0.00 0.00 23 1014.5
20260503223333 16 280 17.7 0.0 0.00 0.00 0.00 21 1014.2
20260503220328 16 322 11.3 0.0 0.00 0.00 0.00 22 1014.4
20260503213318 16 182 12.9 0.0 0.00 0.00 0.00 22 1015.0
20260503210331 16 331 14.5 0.0 0.00 0.00 0.00 22 1015.5
20260503203326 16 322 12.9 0.0 0.00 0.00 0.00 21 1015.7
20260503200319 16 270 16.1 0.0 0.00 0.00 0.00 20 1016.1
20260503193332 15 256 11.3 0.0 0.00 0.00 0.00 24 1016.3
20260503190326 15 266 16.1 0.0 0.00 0.00 0.00 21 1017.0